"Pseudo-MPEC" for ZLB1C05

Created 2018 Jun 18 9:18:58 UT using Find_Orb

Click here for an explanation of pseudo-MPECs

 
 Astrometry: 
     ZLB1C05  C2018 06 11.45434 23 31 05.02 +15 11 14.2          20.1 GUNEOCPG96
     ZLB1C05  C2018 06 11.45867 23 31 05.66 +15 11 17.3          20.1 GUNEOCPG96
     ZLB1C05  C2018 06 11.46300 23 31 06.28 +15 11 20.4          20.4 GUNEOCPG96
     ZLB1C05 pC2018 06 12N;AstrometryEQ=xBwI)#@,Er'1D?J=ZKEYHLDy70'-V3J./W8YxL01
     ZLB1C05 KC2018 06 12DXJKjoEnf%?18B^]AuG#\W6-fEcC]vu[Taxo,m[efF$.*;*Zb-tCL01
     ZLB1C05 KC2018 06 12#:B@7Y3:qgUI6apqMredacted;]q+EFO\b6R\3VPUvh4mUOdB^gXL01
     ZLB1C05 KC2018 06 12F^)MA2fXp8t,k1@!aOwOdj*m.LQv*Q43$U46ujHE)CRN.LOo!y?KL01
     ZLB1C05 KC2018 06 13)2Y0/noC(tRpd(:3Mw0YKr_Tg;[@Z`$msee?41)(dT34soO`BLpVJ04
     ZLB1C05 KC2018 06 13RB;`/0A*k'.8!B#^$]dilQWeF,KC3uye=nK%G0J(b]`?A?`.n7eYJ04
     ZLB1C05 KC2018 06 138L^[_Y4$v()#aP3e3,MplFl1IRsqC9Q5?ip$I*(Ege(6nOvNEOCPJ04
     ZLB1C05  C2018 06 13.43456 23 35 55.69 +15 34 01.0          19.3 GUNEOCPI52
     ZLB1C05  C2018 06 13.43532 23 35 55.81 +15 34 01.6          19.7 GUNEOCPI52
     ZLB1C05  C2018 06 13.44024 23 35 56.49 +15 34 05.2          19.9 GUNEOCPI52
     ZLB1C05  C2018 06 13.44517 23 35 57.19 +15 34 08.0          19.7 GUNEOCPI52

Station data:
(G96) Mt. Lemmon Survey  (N32.442754 W110.788720)  US/Arizona.  Observers B.
   M. Africano, E. J. Christensen, D. C. Fuls, A. R. Gibbs, A. D. Grauer, J.
   A. Johnson, R. A. Kowalski, S. M. Larson, G. J. Leonard, R. L. Seaman, F.
   C. Shelly. 1.5-m reflector + 10K CCD.
(I52) Steward Observatory, Mt. Lemmon Station  (N32.442547 W110.788920)
   US/Arizona.  Observers B. M. Africano, E. J. Christensen, D. C. Fuls, A.
   R. Gibbs, A. D. Grauer, J. A. Johnson, R. A. Kowalski, S. M. Larson, G. J.
   Leonard, R. L. Seaman, F. C. Shelly. 1.0-m reflector + CCD.
(J04) ESA Optical Ground Station, Tenerife  (N28.300924 W16.511830)  Canary
   Islands (Spain).  Observer D. Abreu. Measurers M. Micheli, D. Koschny, E.
   Schwab, M. Busch, A. Knöfel. 1.0-m f/4.4 reflector + CCD.
(L01) Višnjan Observatory, Tičan  (N45.290900 E13.749300)  Croatia.  Observer
   K. Korlević. 1.0-m f/2.9 reflector + CCD.

Orbital elements:  ZLB1C05
   Perihelion 2018 Jun 11.733181 +/- 9.66 TT = 17:35:46 (JD 2458281.233181)
Epoch 2018 Jun 13.0 TT = JDT 2458282.5   Earth MOID: 0.6463   Ju: 0.9213
M   0.17860 +/- 1.8                 (J2000 ecliptic)          AutoNEOCP
n   0.14099011 +/- 0.279            Peri.  127.01154 +/- 4.6
a   3.65603445 +/- 2.97             Node   190.58332 +/- 7
e   0.5656560 +/- 0.463             Incl.   18.38993 +/- 0.6
P   6.99                   H 16.9   G  0.15   U 11.9  
q 1.58797641 +/- 0.184    Q 5.72409249 +/- 7.58
From 14 observations 2018 June 11-13 (47.8 hr); mean residual 0".26
Residuals in arcseconds: 
180611 G96  .11-  .04+    180612 L01  .12+  .37+    180613 I52  .26+  .13-    
180611 G96  .04+  .08+    180612 L01  .27+  .23-    180613 I52  .41+  .05-    
180611 G96  .10-  .12+    180613 J04  .64-  .15-    180613 I52  .05-  .18+    
180612 L01  .00   .05-    180613 J04  .06-  .33+    180613 I52  .23-  .40-    
180612 L01  .20+  .57-    180613 J04  .06-  .31+    

Ephemerides (geocentric):
Date (UTC) HH   RA              Dec         delta   r     elong  mag " sig PA
---- -- -- --  -------------   -----------  ------ ------ -----  --- ---- ---
2018 06 18 09  23 47 51.085   +16 27 23.36  1.3488 1.5894  83.2 20.2 20.2  74
2018 06 18 10  23 47 57.060   +16 27 49.00  1.3486 1.5895  83.2 20.2 20.5  74
2018 06 18 11  23 48 03.034   +16 28 14.63  1.3483 1.5895  83.2 20.2 20.8  74
2018 06 18 12  23 48 09.007   +16 28 40.23  1.3481 1.5895  83.2 20.2 21.2  74
2018 06 18 13  23 48 14.979   +16 29 05.80  1.3479 1.5895  83.2 20.2 21.5  74
2018 06 18 14  23 48 20.950   +16 29 31.36  1.3476 1.5895  83.3 20.2 21.8  74
2018 06 18 15  23 48 26.920   +16 29 56.89  1.3474 1.5895  83.3 20.2 22.1  74
2018 06 18 16  23 48 32.889   +16 30 22.40  1.3472 1.5896  83.3 20.2 22.4  75
2018 06 18 17  23 48 38.857   +16 30 47.88  1.3469 1.5896  83.3 20.2 22.7  75
2018 06 18 18  23 48 44.823   +16 31 13.34  1.3467 1.5896  83.3 20.2 23.1  75
2018 06 18 19  23 48 50.789   +16 31 38.78  1.3464 1.5896  83.3 20.2 23.4  75
2018 06 18 20  23 48 56.754   +16 32 04.19  1.3462 1.5896  83.3 20.2 23.7  75
2018 06 18 21  23 49 02.717   +16 32 29.59  1.3460 1.5897  83.3 20.2 24.1  75
2018 06 18 22  23 49 08.679   +16 32 54.95  1.3457 1.5897  83.4 20.2 24.4  75
2018 06 18 23  23 49 14.641   +16 33 20.30  1.3455 1.5897  83.4 20.2 24.7  75
2018 06 19 00  23 49 20.601   +16 33 45.62  1.3453 1.5897  83.4 20.2 25.1  75
2018 06 19 01  23 49 26.560   +16 34 10.92  1.3450 1.5897  83.4 20.2 25.4  75
2018 06 19 02  23 49 32.518   +16 34 36.19  1.3448 1.5898  83.4 20.2 25.8  75
2018 06 19 03  23 49 38.475   +16 35 01.45  1.3446 1.5898  83.4 20.2 26.1  75
2018 06 19 04  23 49 44.431   +16 35 26.67  1.3443 1.5898  83.4 20.2 26.5  75
2018 06 19 05  23 49 50.386   +16 35 51.88  1.3441 1.5898  83.5 20.2 26.8  75
2018 06 19 06  23 49 56.340   +16 36 17.06  1.3438 1.5898  83.5 20.2 27.2  75
2018 06 19 07  23 50 02.292   +16 36 42.22  1.3436 1.5899  83.5 20.2 27.5  75
2018 06 19 08  23 50 08.244   +16 37 07.35  1.3434 1.5899  83.5 20.2 27.9  75
2018 06 19 09  23 50 14.194   +16 37 32.46  1.3431 1.5899  83.5 20.2 28.3  75
2018 06 19 10  23 50 20.144   +16 37 57.55  1.3429 1.5899  83.5 20.2 28.6  75
2018 06 19 11  23 50 26.092   +16 38 22.61  1.3427 1.5900  83.5 20.2 29.0  75
2018 06 19 12  23 50 32.039   +16 38 47.65  1.3424 1.5900  83.5 20.2 29.4  75
2018 06 19 13  23 50 37.986   +16 39 12.67  1.3422 1.5900  83.6 20.2 29.8  75
2018 06 19 14  23 50 43.931   +16 39 37.67  1.3420 1.5900  83.6 20.2 30.1  75
2018 06 19 15  23 50 49.875   +16 40 02.64  1.3417 1.5900  83.6 20.2 30.5  75
2018 06 19 16  23 50 55.817   +16 40 27.58  1.3415 1.5901  83.6 20.2 30.9  75
2018 06 19 17  23 51 01.759   +16 40 52.50  1.3413 1.5901  83.6 20.2 31.3  76
2018 06 19 18  23 51 07.700   +16 41 17.40  1.3410 1.5901  83.6 20.1 31.7  76
2018 06 19 19  23 51 13.639   +16 41 42.28  1.3408 1.5901  83.6 20.1 32.1  76
2018 06 19 20  23 51 19.578   +16 42 07.13  1.3405 1.5901  83.7 20.1 32.5  76
2018 06 19 21  23 51 25.515   +16 42 31.96  1.3403 1.5902  83.7 20.1 32.9  76
2018 06 19 22  23 51 31.452   +16 42 56.76  1.3401 1.5902  83.7 20.1 33.3  76
2018 06 19 23  23 51 37.387   +16 43 21.54  1.3398 1.5902  83.7 20.1 33.7  76
2018 06 20 00  23 51 43.321   +16 43 46.30  1.3396 1.5902  83.7 20.1 34.1  76
2018 06 20 01  23 51 49.254   +16 44 11.04  1.3394 1.5903  83.7 20.1 34.5  76
2018 06 20 02  23 51 55.186   +16 44 35.74  1.3391 1.5903  83.7 20.1 34.9  76
2018 06 20 03  23 52 01.117   +16 45 00.43  1.3389 1.5903  83.8 20.1 35.4  76
2018 06 20 04  23 52 07.046   +16 45 25.09  1.3387 1.5903  83.8 20.1 35.8  76
2018 06 20 05  23 52 12.975   +16 45 49.73  1.3384 1.5904  83.8 20.1 36.2  76
2018 06 20 06  23 52 18.902   +16 46 14.35  1.3382 1.5904  83.8 20.1 36.6  76
2018 06 20 07  23 52 24.829   +16 46 38.94  1.3380 1.5904  83.8 20.1 37.1  76
2018 06 20 08  23 52 30.754   +16 47 03.50  1.3377 1.5904  83.8 20.1 37.5  76